Time,TemperatureF,DewpointF,PressureIn,WindDirection,WindDirectionDegrees,WindSpeedMPH,WindSpeedGustMPH,Humidity,HourlyPrecipIn,Conditions,Clouds,dailyrainin,SoftwareType,DateUTC
2013-06-04 00:01:00,47.0,42.4,30.09,WSW,248,0.0,2.0,84,0.00,,---,0.00,VWS V14.01,2013-06-04 04:01:00,
2013-06-04 00:03:00,47.0,42.4,30.08,WSW,248,0.0,0.0,84,0.00,,---,0.00,VWS V14.01,2013-06-04 04:03:00,
2013-06-04 00:09:00,47.0,42.7,30.08,WSW,248,0.0,0.0,85,0.00,,---,0.00,VWS V14.01,2013-06-04 04:09:00,
2013-06-04 00:14:00,47.0,42.7,30.09,WSW,248,0.0,0.0,85,0.00,,---,0.00,VWS V14.01,2013-06-04 04:14:00,
2013-06-04 00:19:00,46.0,42.0,30.09,WSW,248,0.0,0.0,86,0.00,,---,0.00,VWS V14.01,2013-06-04 04:19:00,
2013-06-04 00:24:00,46.0,42.0,30.09,WSW,248,0.0,0.0,86,0.00,,---,0.00,VWS V14.01,2013-06-04 04:24:00,
2013-06-04 00:29:00,46.0,42.3,30.09,WSW,248,0.0,0.0,87,0.00,,---,0.00,VWS V14.01,2013-06-04 04:29:00,
2013-06-04 00:34:00,46.0,42.3,30.09,WSW,248,0.0,0.0,87,0.00,,---,0.00,VWS V14.01,2013-06-04 04:34:00,
2013-06-04 00:39:00,46.0,42.3,30.09,WSW,248,0.0,0.0,87,0.00,,---,0.00,VWS V14.01,2013-06-04 04:39:00,
2013-06-04 00:44:00,46.0,42.3,30.09,WSW,248,0.0,0.0,87,0.00,,---,0.00,VWS V14.01,2013-06-04 04:44:00,
2013-06-04 00:49:00,45.0,41.7,30.09,SW,225,0.0,0.0,88,0.00,,---,0.00,VWS V14.01,2013-06-04 04:49:00,
2013-06-04 00:54:00,45.0,41.7,30.09,SSW,202,0.0,0.0,88,0.00,,---,0.00,VWS V14.01,2013-06-04 04:54:00,
2013-06-04 00:59:00,45.0,41.7,30.09,SSW,202,0.0,0.0,88,0.00,,---,0.00,VWS V14.01,2013-06-04 04:59:00,
2013-06-04 01:04:00,45.0,42.0,30.08,SSW,202,0.0,0.0,89,0.00,,---,0.00,VWS V14.01,2013-06-04 05:04:00,
2013-06-04 01:09:00,45.0,42.0,30.09,SSW,202,0.0,0.0,89,0.00,,---,0.00,VWS V14.01,2013-06-04 05:09:00,
2013-06-04 01:14:00,45.0,42.2,30.09,SSW,202,0.0,0.0,90,0.00,,---,0.00,VWS V14.01,2013-06-04 05:14:00,
2013-06-04 01:20:00,45.0,42.2,30.09,SSW,202,0.0,0.0,90,0.00,,---,0.00,VWS V14.01,2013-06-04 05:20:00,
2013-06-04 01:25:00,45.0,42.2,30.09,SSW,202,0.0,0.0,90,0.00,,---,0.00,VWS V14.01,2013-06-04 05:25:00,
2013-06-04 01:30:00,44.0,41.5,30.10,SSW,202,0.0,0.0,91,0.00,,---,0.00,VWS V14.01,2013-06-04 05:30:00,
2013-06-04 01:35:00,44.0,41.5,30.10,SSW,202,0.0,0.0,91,0.00,,---,0.00,VWS V14.01,2013-06-04 05:35:00,
2013-06-04 01:40:00,44.0,41.5,30.10,SSW,202,0.0,0.0,91,0.00,,---,0.00,VWS V14.01,2013-06-04 05:40:00,
2013-06-04 01:45:00,44.0,41.5,30.10,SSW,202,0.0,0.0,91,0.00,,---,0.00,VWS V14.01,2013-06-04 05:45:00,
2013-06-04 01:50:00,44.0,41.5,30.10,SSW,202,0.0,0.0,91,0.00,,---,0.00,VWS V14.01,2013-06-04 05:50:00,
2013-06-04 01:55:00,44.0,41.5,30.10,SSW,202,0.0,0.0,91,0.00,,---,0.00,VWS V14.01,2013-06-04 05:55:00,
2013-06-04 02:00:00,44.0,41.8,30.10,SSW,202,0.0,0.0,92,0.00,,---,0.00,VWS V14.01,2013-06-04 06:00:00,
2013-06-04 02:05:00,44.0,41.8,30.10,SSW,202,0.0,0.0,92,0.00,,---,0.00,VWS V14.01,2013-06-04 06:05:00,
2013-06-04 02:10:00,44.0,41.8,30.10,SSW,202,0.0,0.0,92,0.00,,---,0.00,VWS V14.01,2013-06-04 06:10:00,
2013-06-04 02:16:00,44.0,41.8,30.10,SSW,202,0.0,0.0,92,0.00,,---,0.00,VWS V14.01,2013-06-04 06:16:00,
2013-06-04 02:21:00,44.0,41.8,30.10,SSW,202,0.0,0.0,92,0.00,,---,0.00,VWS V14.01,2013-06-04 06:21:00,
2013-06-04 02:26:00,43.0,40.8,30.10,SSW,202,0.0,0.0,92,0.00,,---,0.00,VWS V14.01,2013-06-04 06:26:00,
2013-06-04 02:31:00,44.0,42.1,30.10,SSW,202,0.0,0.0,93,0.00,,---,0.00,VWS V14.01,2013-06-04 06:31:00,
2013-06-04 02:36:00,43.0,41.1,30.10,SSW,202,0.0,0.0,93,0.00,,---,0.00,VWS V14.01,2013-06-04 06:36:00,
2013-06-04 02:41:00,43.0,41.1,30.10,SSW,202,0.0,0.0,93,0.00,,---,0.00,VWS V14.01,2013-06-04 06:41:00,
2013-06-04 02:46:00,43.0,41.1,30.10,SSW,202,0.0,0.0,93,0.00,,---,0.00,VWS V14.01,2013-06-04 06:46:00,
2013-06-04 02:51:00,43.0,41.1,30.10,SSW,202,0.0,0.0,93,0.00,,---,0.00,VWS V14.01,2013-06-04 06:51:00,
2013-06-04 02:56:00,43.0,41.1,30.10,SSW,202,0.0,0.0,93,0.00,,---,0.00,VWS V14.01,2013-06-04 06:56:00,
2013-06-04 03:01:00,43.0,41.1,30.10,SSW,202,0.0,0.0,93,0.00,,---,0.00,VWS V14.01,2013-06-04 07:01:00,
2013-06-04 03:06:00,43.0,41.1,30.10,SSW,202,0.0,0.0,93,0.00,,---,0.00,VWS V14.01,2013-06-04 07:06:00,
2013-06-04 03:12:00,42.0,40.1,30.10,SW,225,0.0,0.0,93,0.00,,---,0.00,VWS V14.01,2013-06-04 07:12:00,
2013-06-04 03:17:00,42.0,40.4,30.10,SW,225,0.0,0.0,94,0.00,,---,0.00,VWS V14.01,2013-06-04 07:17:00,
2013-06-04 03:22:00,42.0,40.4,30.11,SW,225,0.0,0.0,94,0.00,,---,0.00,VWS V14.01,2013-06-04 07:22:00,
2013-06-04 03:27:00,43.0,41.4,30.11,SW,225,0.0,0.0,94,0.00,,---,0.00,VWS V14.01,2013-06-04 07:27:00,
2013-06-04 03:32:00,42.0,40.4,30.10,SW,225,0.0,0.0,94,0.00,,---,0.00,VWS V14.01,2013-06-04 07:32:00,
2013-06-04 03:37:00,42.0,40.4,30.10,SW,225,0.0,0.0,94,0.00,,---,0.00,VWS V14.01,2013-06-04 07:37:00,
2013-06-04 03:42:00,42.0,40.4,30.10,SW,225,0.0,0.0,94,0.00,,---,0.00,VWS V14.01,2013-06-04 07:42:00,
2013-06-04 03:47:00,42.0,40.4,30.10,SW,225,0.0,0.0,94,0.00,,---,0.00,VWS V14.01,2013-06-04 07:47:00,
2013-06-04 03:52:00,42.0,40.4,30.10,SW,225,0.0,0.0,94,0.00,,---,0.00,VWS V14.01,2013-06-04 07:52:00,
2013-06-04 03:57:00,42.0,40.4,30.10,SSE,158,0.0,1.0,94,0.00,,---,0.00,VWS V14.01,2013-06-04 07:57:00,
2013-06-04 04:02:00,42.0,40.7,30.11,SSE,158,0.0,0.0,95,0.00,,---,0.00,VWS V14.01,2013-06-04 08:02:00,
2013-06-04 04:07:00,42.0,40.7,30.11,SSE,158,0.0,0.0,95,0.00,,---,0.00,VWS V14.01,2013-06-04 08:07:00,
2013-06-04 04:12:00,42.0,40.7,30.11,SSE,158,0.0,0.0,95,0.00,,---,0.00,VWS V14.01,2013-06-04 08:12:00,
2013-06-04 04:17:00,42.0,40.7,30.11,SW,225,0.0,0.0,95,0.00,,---,0.00,VWS V14.01,2013-06-04 08:17:00,
2013-06-04 04:22:00,42.0,40.7,30.11,SW,225,0.0,0.0,95,0.00,,---,0.00,VWS V14.01,2013-06-04 08:22:00,
2013-06-04 04:27:00,42.0,40.7,30.11,SW,225,0.0,0.0,95,0.00,,---,0.00,VWS V14.01,2013-06-04 08:27:00,
2013-06-04 04:32:00,42.0,40.7,30.11,SSE,158,0.0,0.0,95,0.00,,---,0.00,VWS V14.01,2013-06-04 08:32:00,
2013-06-04 04:38:00,42.0,40.7,30.11,SSE,158,0.0,0.0,95,0.00,,---,0.00,VWS V14.01,2013-06-04 08:38:00,
2013-06-04 04:43:00,42.0,40.7,30.11,SE,135,0.0,0.0,95,0.00,,---,0.00,VWS V14.01,2013-06-04 08:43:00,
2013-06-04 04:48:00,42.0,40.7,30.11,ESE,112,2.0,3.0,95,0.00,,---,0.00,VWS V14.01,2013-06-04 08:48:00,
2013-06-04 04:53:00,42.0,40.9,30.11,SE,135,0.0,3.0,96,0.00,,---,0.00,VWS V14.01,2013-06-04 08:53:00,
2013-06-04 04:58:00,42.0,40.9,30.11,SE,135,2.0,3.0,96,0.00,,---,0.00,VWS V14.01,2013-06-04 08:58:00,
2013-06-04 05:03:00,43.0,41.9,30.11,ESE,112,1.0,2.0,96,0.00,,---,0.00,VWS V14.01,2013-06-04 09:03:00,
2013-06-04 05:08:00,43.0,41.9,30.11,SE,135,0.0,2.0,96,0.00,,---,0.00,VWS V14.01,2013-06-04 09:08:00,
2013-06-04 05:13:00,43.0,41.9,30.11,SE,135,0.0,2.0,96,0.00,,---,0.00,VWS V14.01,2013-06-04 09:13:00,
2013-06-04 05:18:00,43.0,41.9,30.11,SE,135,0.0,2.0,96,0.00,,---,0.00,VWS V14.01,2013-06-04 09:18:00,
2013-06-04 05:23:00,43.0,41.9,30.11,SE,135,0.0,0.0,96,0.00,,---,0.00,VWS V14.01,2013-06-04 09:23:00,
2013-06-04 05:28:00,43.0,41.9,30.11,South,180,1.0,2.0,96,0.00,,---,0.00,VWS V14.01,2013-06-04 09:28:00,
2013-06-04 05:33:00,43.0,41.9,30.12,SW,225,0.0,2.0,96,0.00,,---,0.00,VWS V14.01,2013-06-04 09:33:00,
2013-06-04 05:38:00,43.0,41.9,30.12,SW,225,0.0,2.0,96,0.00,,---,0.00,VWS V14.01,2013-06-04 09:38:00,
2013-06-04 05:43:00,43.0,41.9,30.12,SW,225,0.0,0.0,96,0.00,,---,0.00,VWS V14.01,2013-06-04 09:43:00,
2013-06-04 05:49:00,43.0,41.9,30.12,SW,225,0.0,0.0,96,0.00,,---,0.00,VWS V14.01,2013-06-04 09:49:00,
2013-06-04 05:54:00,43.0,41.9,30.12,SW,225,0.0,0.0,96,0.00,,---,0.00,VWS V14.01,2013-06-04 09:54:00,
2013-06-04 05:59:00,43.0,41.9,30.12,SW,225,0.0,0.0,96,0.00,,---,0.00,VWS V14.01,2013-06-04 09:59:00,
2013-06-04 06:04:00,43.0,41.9,30.12,SW,225,0.0,0.0,96,0.00,,---,0.00,VWS V14.01,2013-06-04 10:04:00,
2013-06-04 06:09:00,44.0,42.9,30.12,WNW,292,0.0,3.0,96,0.00,,---,0.00,VWS V14.01,2013-06-04 10:09:00,
2013-06-04 06:14:00,44.0,42.9,30.12,WNW,292,0.0,3.0,96,0.00,,---,0.00,VWS V14.01,2013-06-04 10:14:00,
2013-06-04 06:19:00,44.0,42.9,30.13,WNW,292,0.0,3.0,96,0.00,,---,0.00,VWS V14.01,2013-06-04 10:19:00,
2013-06-04 06:24:00,44.0,43.2,30.12,WNW,292,0.0,1.0,97,0.00,,---,0.00,VWS V14.01,2013-06-04 10:24:00,
2013-06-04 06:29:00,45.0,44.2,30.12,WNW,292,1.0,1.0,97,0.00,,---,0.00,VWS V14.01,2013-06-04 10:29:00,
2013-06-04 06:34:00,45.0,44.2,30.13,WNW,292,0.0,1.0,97,0.00,,---,0.00,VWS V14.01,2013-06-04 10:34:00,
2013-06-04 06:39:00,45.0,43.9,30.13,WNW,292,1.0,2.0,96,0.00,,---,0.00,VWS V14.01,2013-06-04 10:39:00,
2013-06-04 06:44:00,45.0,43.9,30.13,WNW,292,1.0,1.0,96,0.00,,---,0.00,VWS V14.01,2013-06-04 10:44:00,
2013-06-04 06:49:00,45.0,43.9,30.13,WNW,292,0.0,1.0,96,0.00,,---,0.00,VWS V14.01,2013-06-04 10:49:00,
2013-06-04 06:54:00,45.0,43.9,30.13,West,270,2.0,2.0,96,0.00,,---,0.00,VWS V14.01,2013-06-04 10:54:00,
2013-06-04 06:59:00,46.0,45.2,30.14,WSW,248,2.0,3.0,97,0.00,,---,0.00,VWS V14.01,2013-06-04 10:59:00,
2013-06-04 07:04:00,46.0,44.9,30.13,West,270,3.0,3.0,96,0.00,,---,0.00,VWS V14.01,2013-06-04 11:04:00,
2013-06-04 07:10:00,46.0,44.9,30.14,West,270,1.0,3.0,96,0.00,,---,0.00,VWS V14.01,2013-06-04 11:10:00,
2013-06-04 07:15:00,46.0,44.9,30.13,West,270,1.0,3.0,96,0.00,,---,0.00,VWS V14.01,2013-06-04 11:15:00,
2013-06-04 07:20:00,47.0,46.2,30.14,NW,315,2.0,4.0,97,0.00,,---,0.00,VWS V14.01,2013-06-04 11:20:00,
2013-06-04 07:25:00,47.0,46.2,30.14,NW,315,1.0,5.0,97,0.00,,---,0.00,VWS V14.01,2013-06-04 11:25:00,
2013-06-04 07:30:00,48.0,47.2,30.13,NW,315,1.0,5.0,97,0.00,,---,0.00,VWS V14.01,2013-06-04 11:30:00,
2013-06-04 07:35:00,48.0,47.2,30.14,WNW,292,1.0,5.0,97,0.00,,---,0.00,VWS V14.01,2013-06-04 11:35:00,
2013-06-04 07:40:00,48.0,46.6,30.14,North,0,1.0,5.0,95,0.00,,---,0.00,VWS V14.01,2013-06-04 11:40:00,
2013-06-04 07:45:00,48.0,46.4,30.14,NW,315,1.0,6.0,94,0.00,,---,0.00,VWS V14.01,2013-06-04 11:45:00,
2013-06-04 07:51:00,48.0,45.8,30.14,NNW,338,5.0,6.0,92,0.00,,---,0.00,VWS V14.01,2013-06-04 11:51:00,
2013-06-04 07:56:00,49.0,46.5,30.14,WNW,292,4.0,7.0,91,0.00,,---,0.00,VWS V14.01,2013-06-04 11:56:00,
2013-06-04 08:01:00,49.0,45.9,30.14,NW,315,2.0,7.0,89,0.00,,---,0.00,VWS V14.01,2013-06-04 12:01:00,
2013-06-04 08:06:00,50.0,45.7,30.15,NNW,338,3.0,10.0,85,0.00,,---,0.00,VWS V14.01,2013-06-04 12:06:00,
2013-06-04 08:11:00,50.0,45.7,30.15,NNW,338,1.0,10.0,85,0.00,,---,0.00,VWS V14.01,2013-06-04 12:11:00,
2013-06-04 08:16:00,50.0,44.7,30.15,NW,315,3.0,10.0,82,0.00,,---,0.00,VWS V14.01,2013-06-04 12:16:00,
2013-06-04 08:21:00,51.0,45.1,30.15,West,270,3.0,10.0,80,0.00,,---,0.00,VWS V14.01,2013-06-04 12:21:00,
2013-06-04 08:26:00,51.0,44.4,30.14,WSW,248,4.0,7.0,78,0.00,,---,0.00,VWS V14.01,2013-06-04 12:26:00,
2013-06-04 08:31:00,52.0,44.0,30.15,WNW,292,1.0,8.0,74,0.00,,---,0.00,VWS V14.01,2013-06-04 12:31:00,
2013-06-04 08:36:00,52.0,43.6,30.15,WNW,292,2.0,8.0,73,0.00,,---,0.00,VWS V14.01,2013-06-04 12:36:00,
2013-06-04 08:41:00,53.0,44.2,30.16,NNW,338,3.0,5.0,72,0.00,,---,0.00,VWS V14.01,2013-06-04 12:41:00,
2013-06-04 08:46:00,53.0,42.0,30.15,NNW,338,3.0,10.0,66,0.00,,---,0.00,VWS V14.01,2013-06-04 12:46:00,
2013-06-04 08:52:00,53.0,41.2,30.16,WNW,292,6.0,14.0,64,0.00,,---,0.00,VWS V14.01,2013-06-04 12:52:00,
2013-06-04 08:57:00,53.0,42.0,30.16,WNW,292,3.0,14.0,66,0.01,,---,0.01,VWS V14.01,2013-06-04 12:57:00,
2013-06-04 09:02:00,54.0,42.5,30.16,West,270,2.0,5.0,65,0.01,,---,0.01,VWS V14.01,2013-06-04 13:02:00,
2013-06-04 09:07:00,54.0,42.1,30.16,NW,315,5.0,11.0,64,0.01,,---,0.01,VWS V14.01,2013-06-04 13:07:00,
2013-06-04 09:12:00,54.0,40.9,30.17,WSW,248,3.0,11.0,61,0.01,,---,0.01,VWS V14.01,2013-06-04 13:12:00,
2013-06-04 09:17:00,55.0,42.7,30.17,NNW,338,3.0,11.0,63,0.01,,---,0.01,VWS V14.01,2013-06-04 13:17:00,
2013-06-04 09:22:00,54.0,40.4,30.17,WNW,292,3.0,13.0,60,0.01,,---,0.01,VWS V14.01,2013-06-04 13:22:00,
2013-06-04 09:27:00,55.0,41.8,30.17,WNW,292,13.0,13.0,61,0.01,,---,0.01,VWS V14.01,2013-06-04 13:27:00,
2013-06-04 09:32:00,55.0,42.7,30.17,ENE,68,3.0,14.0,63,0.01,,---,0.01,VWS V14.01,2013-06-04 13:32:00,
2013-06-04 09:38:00,55.0,41.4,30.18,NW,315,3.0,14.0,60,0.01,,---,0.01,VWS V14.01,2013-06-04 13:38:00,
2013-06-04 09:43:00,55.0,41.4,30.18,WNW,292,11.0,13.0,60,0.01,,---,0.01,VWS V14.01,2013-06-04 13:43:00,
2013-06-04 09:48:00,56.0,43.6,30.18,NW,315,6.0,13.0,63,0.01,,---,0.01,VWS V14.01,2013-06-04 13:48:00,
2013-06-04 09:53:00,55.0,41.4,30.19,North,0,3.0,13.0,60,0.01,,---,0.01,VWS V14.01,2013-06-04 13:53:00,
2013-06-04 09:58:00,55.0,41.0,30.18,WNW,292,11.0,13.0,59,0.01,,---,0.01,VWS V14.01,2013-06-04 13:58:00,
2013-06-04 10:03:00,55.0,41.4,30.18,North,0,3.0,8.0,60,0.00,,---,0.01,VWS V14.01,2013-06-04 14:03:00,
2013-06-04 10:08:00,56.0,41.5,30.18,NNW,338,4.0,10.0,58,0.00,,---,0.01,VWS V14.01,2013-06-04 14:08:00,
2013-06-04 10:14:00,57.0,42.4,30.18,West,270,3.0,11.0,58,0.00,,---,0.01,VWS V14.01,2013-06-04 14:14:00,
2013-06-04 10:19:00,56.0,40.5,30.18,West,270,10.0,12.0,56,0.00,,---,0.01,VWS V14.01,2013-06-04 14:19:00,
2013-06-04 10:24:00,57.0,41.9,30.18,NNW,338,2.0,12.0,57,0.00,,---,0.01,VWS V14.01,2013-06-04 14:24:00,
2013-06-04 10:29:00,58.0,42.4,30.18,West,270,4.0,12.0,56,0.00,,---,0.01,VWS V14.01,2013-06-04 14:29:00,
2013-06-04 10:34:00,58.0,41.0,30.18,NNW,338,3.0,13.0,53,0.00,,---,0.01,VWS V14.01,2013-06-04 14:34:00,
2013-06-04 10:39:00,58.0,41.0,30.18,WNW,292,3.0,13.0,53,0.00,,---,0.01,VWS V14.01,2013-06-04 14:39:00,
2013-06-04 10:44:00,58.0,41.0,30.18,NNW,338,3.0,10.0,53,0.00,,---,0.01,VWS V14.01,2013-06-04 14:44:00,
2013-06-04 10:49:00,58.0,40.0,30.18,WNW,292,6.0,11.0,51,0.00,,---,0.01,VWS V14.01,2013-06-04 14:49:00,
2013-06-04 10:54:00,58.0,39.5,30.18,WNW,292,8.0,13.0,50,0.00,,---,0.01,VWS V14.01,2013-06-04 14:54:00,
2013-06-04 11:00:00,58.0,40.5,30.18,WNW,292,4.0,13.0,52,0.00,,---,0.01,VWS V14.01,2013-06-04 15:00:00,
2013-06-04 11:05:00,59.0,41.4,30.18,WNW,292,6.0,8.0,52,0.00,,---,0.01,VWS V14.01,2013-06-04 15:05:00,
2013-06-04 11:10:00,59.0,40.9,30.18,NNW,338,9.0,10.0,51,0.00,,---,0.01,VWS V14.01,2013-06-04 15:10:00,
2013-06-04 11:15:00,59.0,39.9,30.18,WNW,292,7.0,12.0,49,0.00,,---,0.01,VWS V14.01,2013-06-04 15:15:00,
2013-06-04 11:20:00,59.0,40.9,30.18,NNW,338,5.0,12.0,51,0.00,,---,0.01,VWS V14.01,2013-06-04 15:20:00,
2013-06-04 11:25:00,58.0,39.5,30.17,NNW,338,5.0,10.0,50,0.00,,---,0.01,VWS V14.01,2013-06-04 15:25:00,
2013-06-04 11:30:00,59.0,40.9,30.17,NNW,338,1.0,10.0,51,0.00,,---,0.01,VWS V14.01,2013-06-04 15:30:00,
2013-06-04 11:35:00,58.0,39.0,30.17,WNW,292,4.0,10.0,49,0.00,,---,0.01,VWS V14.01,2013-06-04 15:35:00,
2013-06-04 11:40:00,59.0,40.9,30.17,SW,225,3.0,10.0,51,0.00,,---,0.01,VWS V14.01,2013-06-04 15:40:00,
2013-06-04 11:45:00,59.0,39.9,30.17,WSW,248,9.0,10.0,49,0.00,,---,0.01,VWS V14.01,2013-06-04 15:45:00,
2013-06-04 11:51:00,59.0,40.4,30.17,NW,315,5.0,10.0,50,0.00,,---,0.01,VWS V14.01,2013-06-04 15:51:00,
2013-06-04 11:56:00,60.0,41.8,30.17,WNW,292,9.0,14.0,51,0.00,,---,0.01,VWS V14.01,2013-06-04 15:56:00,
2013-06-04 12:01:00,60.0,41.8,30.17,West,270,5.0,14.0,51,0.00,,---,0.01,VWS V14.01,2013-06-04 16:01:00,
2013-06-04 12:06:00,60.0,42.3,30.17,WNW,292,4.0,10.0,52,0.00,,---,0.01,VWS V14.01,2013-06-04 16:06:00,
2013-06-04 12:11:00,60.0,41.8,30.17,WNW,292,1.0,10.0,51,0.00,,---,0.01,VWS V14.01,2013-06-04 16:11:00,
2013-06-04 12:16:00,61.0,43.3,30.17,WSW,248,1.0,10.0,52,0.00,,---,0.01,VWS V14.01,2013-06-04 16:16:00,
2013-06-04 12:21:00,62.0,42.1,30.17,NNW,338,3.0,3.0,48,0.00,,---,0.01,VWS V14.01,2013-06-04 16:21:00,
2013-06-04 12:26:00,62.0,42.6,30.17,NW,315,2.0,6.0,49,0.00,,---,0.01,VWS V14.01,2013-06-04 16:26:00,
2013-06-04 12:31:00,62.0,42.6,30.16,NNW,338,1.0,8.0,49,0.00,,---,0.01,VWS V14.01,2013-06-04 16:31:00,
2013-06-04 12:37:00,63.0,44.6,30.16,WNW,292,3.0,8.0,51,0.00,,---,0.01,VWS V14.01,2013-06-04 16:37:00,
2013-06-04 12:42:00,62.0,42.6,30.16,NNW,338,4.0,5.0,49,0.00,,---,0.01,VWS V14.01,2013-06-04 16:42:00,
2013-06-04 12:47:00,62.0,41.6,30.16,South,180,1.0,8.0,47,0.00,,---,0.01,VWS V14.01,2013-06-04 16:47:00,
2013-06-04 12:52:00,62.0,41.6,30.16,NNW,338,1.0,8.0,47,0.00,,---,0.01,VWS V14.01,2013-06-04 16:52:00,
2013-06-04 12:57:00,62.0,41.0,30.16,West,270,3.0,8.0,46,0.00,,---,0.01,VWS V14.01,2013-06-04 16:57:00,
2013-06-04 13:02:00,62.0,41.6,30.16,WSW,248,5.0,5.0,47,0.00,,---,0.01,VWS V14.01,2013-06-04 17:02:00,
2013-06-04 13:07:00,62.0,42.1,30.16,NW,315,1.0,8.0,48,0.00,,---,0.01,VWS V14.01,2013-06-04 17:07:00,
2013-06-04 13:12:00,62.0,41.0,30.16,WSW,248,5.0,11.0,46,0.00,,---,0.01,VWS V14.01,2013-06-04 17:12:00,
2013-06-04 13:17:00,63.0,44.1,30.16,NW,315,3.0,11.0,50,0.00,,---,0.01,VWS V14.01,2013-06-04 17:17:00,
2013-06-04 13:22:00,63.0,43.6,30.16,NNW,338,5.0,8.0,49,0.00,,---,0.01,VWS V14.01,2013-06-04 17:22:00,
2013-06-04 13:27:00,63.0,43.0,30.16,NW,315,1.0,10.0,48,0.00,,---,0.01,VWS V14.01,2013-06-04 17:27:00,
2013-06-04 13:32:00,63.0,43.6,30.16,WNW,292,5.0,10.0,49,0.00,,---,0.01,VWS V14.01,2013-06-04 17:32:00,
2013-06-04 13:37:00,64.0,44.5,30.16,NW,315,5.0,10.0,49,0.00,,---,0.01,VWS V14.01,2013-06-04 17:37:00,
2013-06-04 13:43:00,64.0,44.5,30.16,North,0,3.0,7.0,49,0.00,,---,0.01,VWS V14.01,2013-06-04 17:43:00,
2013-06-04 13:48:00,64.0,43.4,30.16,NNW,338,5.0,7.0,47,0.00,,---,0.01,VWS V14.01,2013-06-04 17:48:00,
2013-06-04 13:53:00,64.0,43.9,30.16,West,270,3.0,9.0,48,0.00,,---,0.01,VWS V14.01,2013-06-04 17:53:00,
2013-06-04 13:58:00,63.0,41.9,30.16,SW,225,2.0,9.0,46,0.00,,---,0.01,VWS V14.01,2013-06-04 17:58:00,
2013-06-04 14:03:00,64.0,45.0,30.16,NNW,338,5.0,6.0,50,0.00,,---,0.01,VWS V14.01,2013-06-04 18:03:00,
2013-06-04 14:08:00,64.0,43.9,30.15,West,270,5.0,10.0,48,0.00,,---,0.01,VWS V14.01,2013-06-04 18:08:00,
2013-06-04 14:13:00,64.0,43.9,30.15,NNW,338,3.0,10.0,48,0.00,,---,0.01,VWS V14.01,2013-06-04 18:13:00,
2013-06-04 14:18:00,64.0,43.4,30.16,NNW,338,2.0,11.0,47,0.00,,---,0.01,VWS V14.01,2013-06-04 18:18:00,
2013-06-04 14:23:00,64.0,43.4,30.15,NW,315,4.0,10.0,47,0.00,,---,0.01,VWS V14.01,2013-06-04 18:23:00,
2013-06-04 14:29:00,64.0,42.8,30.15,West,270,2.0,11.0,46,0.00,,---,0.01,VWS V14.01,2013-06-04 18:29:00,
2013-06-04 14:34:00,64.0,43.4,30.15,NW,315,3.0,11.0,47,0.00,,---,0.01,VWS V14.01,2013-06-04 18:34:00,
2013-06-04 14:39:00,64.0,43.9,30.14,West,270,8.0,11.0,48,0.00,,---,0.01,VWS V14.01,2013-06-04 18:39:00,
2013-06-04 14:44:00,64.0,43.9,30.14,WNW,292,13.0,13.0,48,0.00,,---,0.01,VWS V14.01,2013-06-04 18:44:00,
2013-06-04 14:49:00,64.0,42.8,30.14,WSW,248,2.0,14.0,46,0.00,,---,0.01,VWS V14.01,2013-06-04 18:49:00,
2013-06-04 14:54:00,64.0,43.9,30.15,NNW,338,4.0,14.0,48,0.00,,---,0.01,VWS V14.01,2013-06-04 18:54:00,
2013-06-04 14:59:00,65.0,44.3,30.15,WNW,292,9.0,14.0,47,0.00,,---,0.01,VWS V14.01,2013-06-04 18:59:00,
2013-06-04 15:04:00,64.0,42.3,30.15,North,0,5.0,13.0,45,0.00,,---,0.01,VWS V14.01,2013-06-04 19:04:00,
2013-06-04 15:09:00,65.0,44.3,30.15,NNW,338,5.0,13.0,47,0.00,,---,0.01,VWS V14.01,2013-06-04 19:09:00,
2013-06-04 15:14:00,65.0,44.8,30.15,WNW,292,6.0,13.0,48,0.00,,---,0.01,VWS V14.01,2013-06-04 19:14:00,
2013-06-04 15:19:00,65.0,44.8,30.15,NW,315,3.0,14.0,48,0.00,,---,0.01,VWS V14.01,2013-06-04 19:19:00,
2013-06-04 15:24:00,64.0,43.9,30.15,WNW,292,11.0,14.0,48,0.00,,---,0.01,VWS V14.01,2013-06-04 19:24:00,
2013-06-04 15:30:00,64.0,43.9,30.15,WNW,292,8.0,15.0,48,0.00,,---,0.01,VWS V14.01,2013-06-04 19:30:00,
2013-06-04 15:35:00,64.0,43.4,30.15,West,270,8.0,16.0,47,0.00,,---,0.01,VWS V14.01,2013-06-04 19:35:00,
2013-06-04 15:40:00,64.0,43.4,30.15,NW,315,11.0,17.0,47,0.00,,---,0.01,VWS V14.01,2013-06-04 19:40:00,
2013-06-04 15:45:00,65.0,45.4,30.15,WNW,292,8.0,14.0,49,0.00,,---,0.01,VWS V14.01,2013-06-04 19:45:00,
2013-06-04 15:50:00,65.0,43.7,30.15,WNW,292,7.0,14.0,46,0.00,,---,0.01,VWS V14.01,2013-06-04 19:50:00,
2013-06-04 15:55:00,65.0,44.3,30.15,West,270,8.0,18.0,47,0.00,,---,0.01,VWS V14.01,2013-06-04 19:55:00,
2013-06-04 16:00:00,65.0,44.8,30.15,NW,315,4.0,18.0,48,0.00,,---,0.01,VWS V14.01,2013-06-04 20:00:00,
2013-06-04 16:05:00,65.0,44.3,30.14,North,0,6.0,13.0,47,0.00,,---,0.01,VWS V14.01,2013-06-04 20:05:00,
2013-06-04 16:10:00,65.0,43.7,30.15,WNW,292,10.0,13.0,46,0.00,,---,0.01,VWS V14.01,2013-06-04 20:10:00,
2013-06-04 16:15:00,65.0,43.7,30.15,WSW,248,8.0,17.0,46,0.00,,---,0.01,VWS V14.01,2013-06-04 20:15:00,
2013-06-04 16:21:00,65.0,44.3,30.14,North,0,3.0,17.0,47,0.00,,---,0.01,VWS V14.01,2013-06-04 20:21:00,
2013-06-04 16:26:00,65.0,43.7,30.15,WNW,292,10.0,16.0,46,0.00,,---,0.01,VWS V14.01,2013-06-04 20:26:00,
2013-06-04 16:31:00,65.0,43.7,30.15,WNW,292,10.0,16.0,46,0.00,,---,0.01,VWS V14.01,2013-06-04 20:31:00,
2013-06-04 16:36:00,65.0,41.4,30.15,NNW,338,4.0,16.0,42,0.00,,---,0.01,VWS V14.01,2013-06-04 20:36:00,
2013-06-04 16:41:00,65.0,43.2,30.15,WNW,292,3.0,3.0,45,0.00,,---,0.01,VWS V14.01,2013-06-04 20:41:00,
2013-06-04 16:46:00,65.0,40.8,30.15,WSW,248,2.0,7.0,41,0.00,,---,0.01,VWS V14.01,2013-06-04 20:46:00,
2013-06-04 16:52:00,65.0,39.5,30.16,NNW,338,7.0,11.0,39,0.00,,---,0.01,VWS V14.01,2013-06-04 20:52:00,
2013-06-04 16:57:00,66.0,41.7,30.16,NNW,338,2.0,11.0,41,0.00,,---,0.01,VWS V14.01,2013-06-04 20:57:00,
2013-06-04 17:02:00,66.0,42.3,30.16,NW,315,3.0,6.0,42,0.00,,---,0.01,VWS V14.01,2013-06-04 21:02:00,
2013-06-04 17:07:00,66.0,41.0,30.16,WNW,292,4.0,11.0,40,0.00,,---,0.01,VWS V14.01,2013-06-04 21:07:00,
2013-06-04 17:12:00,65.0,41.4,30.16,NNW,338,1.0,13.0,42,0.00,,---,0.01,VWS V14.01,2013-06-04 21:12:00,
2013-06-04 17:17:00,66.0,42.9,30.16,NNW,338,5.0,13.0,43,0.00,,---,0.01,VWS V14.01,2013-06-04 21:17:00,
2013-06-04 17:22:00,65.0,41.4,30.16,WNW,292,10.0,10.0,42,0.00,,---,0.01,VWS V14.01,2013-06-04 21:22:00,
2013-06-04 17:27:00,65.0,40.1,30.16,West,270,3.0,15.0,40,0.00,,---,0.01,VWS V14.01,2013-06-04 21:27:00,
2013-06-04 17:32:00,65.0,41.4,30.16,WNW,292,6.0,15.0,42,0.00,,---,0.01,VWS V14.01,2013-06-04 21:32:00,
2013-06-04 17:38:00,65.0,39.5,30.16,WNW,292,3.0,15.0,39,0.00,,---,0.01,VWS V14.01,2013-06-04 21:38:00,
2013-06-04 17:43:00,65.0,39.5,30.16,NNW,338,4.0,11.0,39,0.00,,---,0.01,VWS V14.01,2013-06-04 21:43:00,
2013-06-04 17:48:00,65.0,40.1,30.15,NNW,338,4.0,11.0,40,0.00,,---,0.01,VWS V14.01,2013-06-04 21:48:00,
2013-06-04 17:53:00,65.0,39.5,30.15,West,270,5.0,11.0,39,0.00,,---,0.01,VWS V14.01,2013-06-04 21:53:00,
2013-06-04 17:58:00,65.0,37.4,30.16,NNW,338,7.0,11.0,36,0.00,,---,0.01,VWS V14.01,2013-06-04 21:58:00,
2013-06-04 18:03:00,65.0,37.4,30.16,NNW,338,10.0,10.0,36,0.00,,---,0.01,VWS V14.01,2013-06-04 22:03:00,
2013-06-04 18:08:00,65.0,38.1,30.16,NNW,338,5.0,10.0,37,0.00,,---,0.01,VWS V14.01,2013-06-04 22:08:00,
2013-06-04 18:13:00,65.0,38.8,30.16,NNW,338,1.0,10.0,38,0.00,,---,0.01,VWS V14.01,2013-06-04 22:13:00,
2013-06-04 18:19:00,65.0,38.1,30.16,NNW,338,2.0,10.0,37,0.00,,---,0.01,VWS V14.01,2013-06-04 22:19:00,
2013-06-04 18:24:00,64.0,35.8,30.16,NW,315,7.0,10.0,35,0.00,,---,0.01,VWS V14.01,2013-06-04 22:24:00,
2013-06-04 18:29:00,64.0,37.2,30.16,NNW,338,6.0,10.0,37,0.00,,---,0.01,VWS V14.01,2013-06-04 22:29:00,
2013-06-04 18:34:00,63.0,37.7,30.16,NNE,22,4.0,11.0,39,0.00,,---,0.01,VWS V14.01,2013-06-04 22:34:00,
2013-06-04 18:39:00,63.0,37.0,30.16,North,0,5.0,11.0,38,0.00,,---,0.01,VWS V14.01,2013-06-04 22:39:00,
2013-06-04 18:44:00,63.0,37.7,30.16,NNW,338,4.0,7.0,39,0.00,,---,0.01,VWS V14.01,2013-06-04 22:44:00,
2013-06-04 18:49:00,62.0,37.4,30.16,NNW,338,5.0,10.0,40,0.00,,---,0.01,VWS V14.01,2013-06-04 22:49:00,
2013-06-04 18:54:00,62.0,38.0,30.17,NNW,338,3.0,10.0,41,0.00,,---,0.01,VWS V14.01,2013-06-04 22:54:00,
2013-06-04 18:59:00,62.0,38.0,30.16,North,0,1.0,10.0,41,0.00,,---,0.01,VWS V14.01,2013-06-04 22:59:00,
2013-06-04 19:04:00,62.0,37.4,30.17,WNW,292,4.0,7.0,40,0.00,,---,0.01,VWS V14.01,2013-06-04 23:04:00,
2013-06-04 19:09:00,61.0,37.8,30.17,NNW,338,5.0,10.0,42,0.00,,---,0.01,VWS V14.01,2013-06-04 23:09:00,
2013-06-04 19:14:00,61.0,38.4,30.17,NE,45,4.0,10.0,43,0.00,,---,0.01,VWS V14.01,2013-06-04 23:14:00,
2013-06-04 19:19:00,61.0,38.4,30.17,NNE,22,5.0,11.0,43,0.00,,---,0.01,VWS V14.01,2013-06-04 23:19:00,
2013-06-04 19:24:00,61.0,39.0,30.17,NNW,338,6.0,8.0,44,0.00,,---,0.01,VWS V14.01,2013-06-04 23:24:00,
2013-06-04 19:29:00,61.0,39.0,30.18,NNW,338,12.0,12.0,44,0.00,,---,0.01,VWS V14.01,2013-06-04 23:29:00,
2013-06-04 19:34:00,60.0,37.5,30.18,NNW,338,5.0,12.0,43,0.00,,---,0.01,VWS V14.01,2013-06-04 23:34:00,
2013-06-04 19:40:00,60.0,38.0,30.18,North,0,5.0,12.0,44,0.00,,---,0.01,VWS V14.01,2013-06-04 23:40:00,
2013-06-04 19:45:00,60.0,37.5,30.18,NW,315,1.0,8.0,43,0.00,,---,0.01,VWS V14.01,2013-06-04 23:45:00,
2013-06-04 19:50:00,60.0,36.9,30.19,NNW,338,2.0,11.0,42,0.00,,---,0.01,VWS V14.01,2013-06-04 23:50:00,
2013-06-04 19:55:00,60.0,37.5,30.19,NNE,22,3.0,11.0,43,0.00,,---,0.01,VWS V14.01,2013-06-04 23:55:00,
2013-06-04 20:00:00,59.0,36.6,30.19,NNW,338,1.0,11.0,43,0.00,,---,0.01,VWS V14.01,2013-06-05 00:00:00,
2013-06-04 20:05:00,59.0,36.0,30.19,NNW,338,1.0,7.0,42,0.00,,---,0.01,VWS V14.01,2013-06-05 00:05:00,
2013-06-04 20:10:00,59.0,37.7,30.19,NNW,338,4.0,7.0,45,0.00,,---,0.01,VWS V14.01,2013-06-05 00:10:00,
2013-06-04 20:15:00,59.0,36.6,30.19,North,0,1.0,8.0,43,0.00,,---,0.01,VWS V14.01,2013-06-05 00:15:00,
2013-06-04 20:20:00,59.0,35.3,30.19,NNW,338,2.0,8.0,41,0.00,,---,0.01,VWS V14.01,2013-06-05 00:20:00,
2013-06-04 20:25:00,58.0,35.7,30.19,NNW,338,1.0,6.0,43,0.00,,---,0.01,VWS V14.01,2013-06-05 00:25:00,
2013-06-04 20:30:00,58.0,36.2,30.19,NW,315,1.0,6.0,44,0.00,,---,0.01,VWS V14.01,2013-06-05 00:30:00,
2013-06-04 20:35:00,58.0,36.2,30.19,NNW,338,1.0,6.0,44,0.00,,---,0.01,VWS V14.01,2013-06-05 00:35:00,
2013-06-04 20:40:00,58.0,36.8,30.19,NNW,338,0.0,6.0,45,0.00,,---,0.01,VWS V14.01,2013-06-05 00:40:00,
2013-06-04 20:46:00,57.0,37.0,30.19,NNW,338,1.0,4.0,47,0.00,,---,0.01,VWS V14.01,2013-06-05 00:46:00,
2013-06-04 20:51:00,57.0,37.5,30.19,NNW,338,1.0,5.0,48,0.00,,---,0.01,VWS V14.01,2013-06-05 00:51:00,
2013-06-04 20:56:00,57.0,37.5,30.19,WNW,292,0.0,5.0,48,0.00,,---,0.01,VWS V14.01,2013-06-05 00:56:00,
2013-06-04 21:01:00,56.0,37.1,30.19,NNW,338,0.0,5.0,49,0.00,,---,0.01,VWS V14.01,2013-06-05 01:01:00,
2013-06-04 21:06:00,56.0,38.2,30.19,NNW,338,0.0,1.0,51,0.00,,---,0.01,VWS V14.01,2013-06-05 01:06:00,
2013-06-04 21:11:00,56.0,38.6,30.19,NNE,22,0.0,1.0,52,0.00,,---,0.01,VWS V14.01,2013-06-05 01:11:00,
2013-06-04 21:16:00,55.0,38.2,30.19,NNE,22,0.0,1.0,53,0.00,,---,0.01,VWS V14.01,2013-06-05 01:16:00,
2013-06-04 21:21:00,55.0,38.7,30.19,North,0,0.0,1.0,54,0.00,,---,0.01,VWS V14.01,2013-06-05 01:21:00,
2013-06-04 21:26:00,54.0,38.2,30.19,WNW,292,0.0,1.0,55,0.00,,---,0.01,VWS V14.01,2013-06-05 01:26:00,
2013-06-04 21:31:00,54.0,39.1,30.19,WNW,292,0.0,1.0,57,0.00,,---,0.01,VWS V14.01,2013-06-05 01:31:00,
2013-06-04 21:36:00,54.0,39.6,30.19,WSW,248,0.0,1.0,58,0.00,,---,0.01,VWS V14.01,2013-06-05 01:36:00,
2013-06-04 21:41:00,53.0,39.1,30.19,WSW,248,0.0,0.0,59,0.00,,---,0.01,VWS V14.01,2013-06-05 01:41:00,
2013-06-04 21:46:00,53.0,39.9,30.19,WSW,248,0.0,1.0,61,0.00,,---,0.01,VWS V14.01,2013-06-05 01:46:00,
2013-06-04 21:52:00,53.0,40.8,30.19,WSW,248,0.0,1.0,63,0.00,,---,0.01,VWS V14.01,2013-06-05 01:52:00,
2013-06-04 21:57:00,52.0,39.8,30.19,WSW,248,1.0,2.0,63,0.00,,---,0.01,VWS V14.01,2013-06-05 01:57:00,
2013-06-04 22:02:00,52.0,40.6,30.19,WSW,248,1.0,1.0,65,0.00,,---,0.01,VWS V14.01,2013-06-05 02:02:00,
2013-06-04 22:07:00,51.0,40.1,30.19,WSW,248,0.0,1.0,66,0.00,,---,0.01,VWS V14.01,2013-06-05 02:07:00,
2013-06-04 22:12:00,51.0,40.4,30.19,WSW,248,0.0,1.0,67,0.00,,---,0.01,VWS V14.01,2013-06-05 02:12:00,
2013-06-04 22:17:00,51.0,40.8,30.19,WSW,248,0.0,1.0,68,0.00,,---,0.01,VWS V14.01,2013-06-05 02:17:00,
2013-06-04 22:22:00,51.0,40.8,30.19,WSW,248,0.0,0.0,68,0.00,,---,0.01,VWS V14.01,2013-06-05 02:22:00,
2013-06-04 22:27:00,50.0,40.6,30.19,WSW,248,0.0,1.0,70,0.00,,---,0.01,VWS V14.01,2013-06-05 02:27:00,
2013-06-04 22:32:00,50.0,40.6,30.19,WSW,248,0.0,1.0,70,0.00,,---,0.01,VWS V14.01,2013-06-05 02:32:00,
2013-06-04 22:37:00,50.0,41.0,30.19,WSW,248,0.0,1.0,71,0.00,,---,0.01,VWS V14.01,2013-06-05 02:37:00,
2013-06-04 22:42:00,50.0,41.7,30.19,WSW,248,0.0,0.0,73,0.00,,---,0.01,VWS V14.01,2013-06-05 02:42:00,
2013-06-04 22:48:00,49.0,41.1,30.19,WSW,248,1.0,1.0,74,0.00,,---,0.01,VWS V14.01,2013-06-05 02:48:00,
2013-06-04 22:53:00,49.0,41.4,30.19,West,270,0.0,1.0,75,0.00,,---,0.01,VWS V14.01,2013-06-05 02:53:00,
2013-06-04 22:58:00,49.0,41.8,30.19,West,270,0.0,1.0,76,0.00,,---,0.01,VWS V14.01,2013-06-05 02:58:00,
2013-06-04 23:03:00,49.0,41.8,30.19,West,270,1.0,1.0,76,0.00,,---,0.01,VWS V14.01,2013-06-05 03:03:00,
2013-06-04 23:08:00,49.0,42.1,30.19,West,270,0.0,1.0,77,0.00,,---,0.01,VWS V14.01,2013-06-05 03:08:00,
2013-06-04 23:13:00,48.0,41.5,30.19,West,270,0.0,1.0,78,0.00,,---,0.01,VWS V14.01,2013-06-05 03:13:00,
2013-06-04 23:18:00,48.0,41.8,30.19,West,270,0.0,1.0,79,0.00,,---,0.01,VWS V14.01,2013-06-05 03:18:00,
2013-06-04 23:23:00,48.0,41.8,30.19,West,270,0.0,1.0,79,0.00,,---,0.01,VWS V14.01,2013-06-05 03:23:00,
2013-06-04 23:28:00,48.0,42.1,30.19,West,270,0.0,1.0,80,0.00,,---,0.01,VWS V14.01,2013-06-05 03:28:00,
2013-06-04 23:33:00,48.0,42.5,30.19,West,270,0.0,1.0,81,0.00,,---,0.01,VWS V14.01,2013-06-05 03:33:00,
2013-06-04 23:38:00,48.0,42.5,30.19,West,270,0.0,1.0,81,0.00,,---,0.01,VWS V14.01,2013-06-05 03:38:00,
2013-06-04 23:43:00,47.0,41.5,30.19,West,270,0.0,1.0,81,0.00,,---,0.01,VWS V14.01,2013-06-05 03:43:00,
2013-06-04 23:49:00,47.0,41.5,30.19,West,270,0.0,1.0,81,0.00,,---,0.01,VWS V14.01,2013-06-05 03:49:00,
2013-06-04 23:54:00,47.0,41.5,30.19,West,270,0.0,1.0,81,0.00,,---,0.01,VWS V14.01,2013-06-05 03:54:00,
2013-06-04 23:59:00,47.0,41.8,30.19,WSW,248,0.0,1.0,82,0.00,,---,0.01,VWS V14.01,2013-06-05 03:59:00,